Вернуться в каталог

ZY 1

АктивенНаукаSSO
NORAD 38038·PAYLOAD·🇨🇳 China

Запущен Dec 22, 2011 с Taiyuan Satellite Launch Center

Loading…

Ближайшие Пролёты (ближайшие 24 часа)

TLE

СвежийSource: Space-Track

Эпоха: Sep 14, 2026, 15:06 UTC

1 38038U 11079A   26257.62983882  .00000250  00000-0  96455-4 0  9998
2 38038  98.3992 323.0350 0007323  47.4625 110.1613 14.38273066772068

Отслеживайте ZY 1 в реальном времени с AllMySat

Download on the App Store